Weather History for Clinton, NC

Change the Weather History Date:

Friday, May 3, 2013

  Actual Average (KFAY) Record (KFAY)
Temperature  
Mean Temperature 62 °F 67 °F  
Max Temperature 71 °F 79 °F 95 °F (1913)
Min Temperature 53 °F 55 °F 38 °F (1939)
Degree Days  
Heating Degree Days 3 2  
Month to date heating degree days 6  
Since 1 July heating degree days 2713  
Cooling Degree Days 0 4  
Month to date cooling degree days 12  
Year to date cooling degree days 95  
Growing Degree Days 12 (Base 50)    
Moisture  
Dew Point 51 °F    
Average Humidity 72    
Maximum Humidity 95    
Minimum Humidity 40    
Precipitation  
Precipitation 0.00 in 0.06 in 0.93 in (1953)
Month to date precipitation 0.17  
Year to date precipitation 12.60  
Sea Level Pressure  
Sea Level Pressure 30.19 in    
Wind  
Wind Speed 7 mph (NE)    
Max Wind Speed 14 mph    
Max Gust Speed 22 mph    
Visibility 10 miles    
Events      
T = Trace of Precipitation, MM = Missing Value Source: NWS Daily Summary

Daily Weather History Graph

Daily Weather History Graph

Search for Another Location

Airport:

Trip Planner

Search our weather history database for the weather conditions in past years. The results will help you decide how hot, cold, wet, or windy it might be!

Date:

Astronomy

May. 03, 2013 Rise Set
Actual Time 6:20 AM EDT 8:00 PM EDT
Civil Twilight 5:53 AM EDT 8:27 PM EDT
Nautical Twilight 5:20 AM EDT 9:00 PM EDT
Astronomical Twilight 4:45 AM EDT 9:35 PM EDT
Moon 2:28 AM EDT (5/3) 2:07 PM EDT (5/3)
Length of Visible Light 14h 34m
Length of Day
13h 40m
Last Quarter, 37% of the Moon is Illuminated
May 3
Last Quarter
May 9
New
May 18
First Quarter
May 25
Full
May 31
Last Quarter

Hourly Weather History & Observations

Time (EDT) Temp. Dew Point Humidity Pressure Visibility Wind Dir Wind Speed Gust Speed Precip Events Conditions
12:15 AM 57.4 °F 53.1 °F 85% 30.23 in 10.0 mi NE 5.8 mph - N/A   Clear
12:35 AM 56.8 °F 53.1 °F 87% 30.23 in 10.0 mi ENE 6.9 mph - N/A   Clear
12:55 AM 56.7 °F 53.4 °F 89% 30.22 in 10.0 mi NE 5.8 mph - N/A   Clear
1:15 AM 56.3 °F 53.2 °F 89% 30.22 in 10.0 mi NE 4.6 mph - N/A   Clear
1:35 AM 55.6 °F 53.2 °F 92% 30.21 in 10.0 mi NE 4.6 mph - N/A   Clear
1:55 AM 55.4 °F 53.1 °F 92% 30.20 in 10.0 mi NE 6.9 mph - N/A   Clear
2:15 AM 54.9 °F 52.9 °F 93% 30.19 in 10.0 mi NNE 6.9 mph - N/A   Clear
2:35 AM 54.7 °F 52.9 °F 94% 30.19 in 10.0 mi NE 8.1 mph - N/A   Clear
2:55 AM 54.5 °F 52.7 °F 94% 30.19 in 10.0 mi NE 5.8 mph - N/A   Clear
3:15 AM 54.1 °F 52.3 °F 94% 30.18 in 10.0 mi NE 4.6 mph - N/A   Clear
3:35 AM 53.8 °F 52.2 °F 94% 30.18 in 10.0 mi NE 6.9 mph - N/A   Clear
3:55 AM 53.8 °F 52.3 °F 95% 30.18 in 10.0 mi NNE 6.9 mph - N/A   Scattered Clouds
4:15 AM 54.1 °F 52.3 °F 94% 30.17 in 10.0 mi NE 8.1 mph - N/A   Overcast
4:35 AM 54.1 °F 52.2 °F 93% 30.18 in 10.0 mi NE 8.1 mph - N/A   Overcast
4:55 AM 54.1 °F 52.2 °F 93% 30.18 in 10.0 mi NE 6.9 mph - N/A   Overcast
5:15 AM 54.0 °F 52.0 °F 93% 30.18 in 10.0 mi NNE 6.9 mph - N/A   Overcast
5:35 AM 54.0 °F 52.0 °F 93% 30.18 in 10.0 mi NE 6.9 mph - N/A   Overcast
5:55 AM 53.8 °F 52.0 °F 94% 30.18 in 10.0 mi NE 5.8 mph - N/A   Overcast
6:15 AM 54.0 °F 52.0 °F 93% 30.18 in 10.0 mi NE 6.9 mph - N/A   Overcast
6:35 AM 54.0 °F 52.0 °F 93% 30.19 in 10.0 mi NE 5.8 mph - N/A   Overcast
6:55 AM 53.8 °F 52.0 °F 94% 30.19 in 10.0 mi NE 8.1 mph - N/A   Overcast
7:15 AM 53.8 °F 52.0 °F 94% 30.20 in 10.0 mi NE 4.6 mph - N/A   Overcast
7:35 AM 54.0 °F 52.2 °F 94% 30.21 in 10.0 mi NE 6.9 mph - N/A   Overcast
7:55 AM 54.5 °F 52.2 °F 92% 30.21 in 10.0 mi NE 9.2 mph - N/A   Overcast
8:15 AM 54.7 °F 52.2 °F 91% 30.21 in 10.0 mi NE 4.6 mph - N/A   Mostly Cloudy
8:35 AM 56.1 °F 52.5 °F 88% 30.21 in 10.0 mi NE 8.1 mph - N/A   Scattered Clouds
8:55 AM 57.7 °F 52.7 °F 83% 30.22 in 10.0 mi NNE 9.2 mph 16.1 mph N/A   Scattered Clouds
9:15 AM 58.3 °F 52.7 °F 82% 30.22 in 10.0 mi NE 5.8 mph 16.1 mph N/A   Clear
9:35 AM 60.8 °F 53.1 °F 76% 30.21 in 10.0 mi NE 6.9 mph - N/A   Clear
9:55 AM 62.6 °F 53.6 °F 72% 30.21 in 10.0 mi NNE 8.1 mph 18.4 mph N/A   Clear
10:15 AM 63.5 °F 53.6 °F 70% 30.22 in 10.0 mi ENE 8.1 mph 17.3 mph N/A   Scattered Clouds
10:35 AM 64.4 °F 54.1 °F 69% 30.22 in 10.0 mi NE 9.2 mph 16.1 mph N/A   Clear
10:55 AM 66.0 °F 54.9 °F 67% 30.23 in 10.0 mi NE 9.2 mph 19.6 mph N/A   Clear
11:15 AM 67.3 °F 55.2 °F 65% 30.23 in 10.0 mi NE 9.2 mph 16.1 mph N/A   Scattered Clouds
11:35 AM 66.6 °F 55.0 °F 66% 30.22 in 10.0 mi ENE 6.9 mph 17.3 mph N/A   Scattered Clouds
11:55 AM 67.5 °F 55.4 °F 65% 30.21 in 10.0 mi East 8.1 mph - N/A   Scattered Clouds
12:15 PM 68.9 °F 56.3 °F 64% 30.21 in 10.0 mi NE 8.1 mph - N/A   Scattered Clouds
12:35 PM 69.8 °F 56.5 °F 63% 30.21 in 10.0 mi NNE 13.8 mph 20.7 mph N/A   Mostly Cloudy
12:55 PM 68.9 °F 56.3 °F 64% 30.20 in 10.0 mi NE 11.5 mph 21.9 mph N/A   Mostly Cloudy
1:15 PM 67.5 °F 55.6 °F 66% 30.20 in 10.0 mi ENE 5.8 mph 17.3 mph N/A   Overcast
1:35 PM 68.4 °F 55.8 °F 64% 30.19 in 10.0 mi NE 6.9 mph - N/A   Overcast
1:55 PM 68.7 °F 56.1 °F 64% 30.19 in 10.0 mi NNE 9.2 mph - N/A   Overcast
2:15 PM 69.1 °F 56.5 °F 64% 30.18 in 10.0 mi NE 6.9 mph - N/A   Overcast
2:35 PM 69.8 °F 55.0 °F 59% 30.17 in 10.0 mi ENE 9.2 mph 17.3 mph N/A   Overcast
2:55 PM 70.9 °F 54.3 °F 56% 30.17 in 10.0 mi East 9.2 mph 18.4 mph N/A   Mostly Cloudy
3:15 PM 71.6 °F 52.7 °F 51% 30.16 in 10.0 mi ENE 8.1 mph 16.1 mph N/A   Mostly Cloudy
3:35 PM 71.1 °F 52.0 °F 51% 30.15 in 10.0 mi ENE 9.2 mph 17.3 mph N/A   Mostly Cloudy
3:55 PM 70.3 °F 53.4 °F 55% 30.15 in 10.0 mi ENE 4.6 mph - N/A   Mostly Cloudy
4:15 PM 70.3 °F 50.7 °F 50% 30.15 in 10.0 mi ENE 6.9 mph 17.3 mph N/A   Scattered Clouds
4:35 PM 70.7 °F 50.2 °F 48% 30.15 in 10.0 mi East 8.1 mph 16.1 mph N/A   Scattered Clouds
4:55 PM 69.3 °F 50.2 °F 51% 30.15 in 10.0 mi East 9.2 mph 16.1 mph N/A   Mostly Cloudy
5:15 PM 68.9 °F 49.8 °F 51% 30.15 in 10.0 mi NE 4.6 mph - N/A   Overcast
5:35 PM 69.4 °F 46.6 °F 44% 30.15 in 10.0 mi NE 11.5 mph 17.3 mph N/A   Scattered Clouds
5:55 PM 68.5 °F 46.8 °F 46% 30.15 in 10.0 mi NE 10.4 mph 21.9 mph N/A   Clear
6:15 PM 66.9 °F 41.9 °F 40% 30.15 in 10.0 mi ENE 9.2 mph 19.6 mph N/A   Clear
6:35 PM 65.7 °F 42.3 °F 43% 30.16 in 10.0 mi NE 10.4 mph 19.6 mph N/A   Clear
6:55 PM 64.6 °F 41.5 °F 43% 30.16 in 10.0 mi ENE 8.1 mph - N/A   Clear
7:15 PM 63.5 °F 43.2 °F 47% 30.17 in 10.0 mi ENE 9.2 mph 18.4 mph N/A   Clear
7:35 PM 61.9 °F 42.8 °F 50% 30.18 in 10.0 mi ENE 9.2 mph 17.3 mph N/A   Clear
7:55 PM 60.8 °F 42.8 °F 52% 30.18 in 10.0 mi ENE 9.2 mph - N/A   Clear
8:15 PM 59.5 °F 43.7 °F 56% 30.19 in 10.0 mi ENE 10.4 mph 16.1 mph N/A   Clear
8:35 PM 58.8 °F 43.9 °F 58% 30.19 in 10.0 mi NE 8.1 mph - N/A   Clear
8:55 PM 58.1 °F 43.9 °F 59% 30.19 in 10.0 mi NE 5.8 mph - N/A   Clear
9:15 PM 57.2 °F 44.6 °F 63% 30.20 in 10.0 mi ENE 6.9 mph - N/A   Clear
9:35 PM 56.7 °F 44.6 °F 64% 30.20 in 10.0 mi NE 8.1 mph - N/A   Clear
9:55 PM 56.1 °F 44.6 °F 65% 30.20 in 10.0 mi NE 5.8 mph - N/A   Clear
10:15 PM 55.4 °F 45.0 °F 68% 30.20 in 10.0 mi ENE 5.8 mph - N/A   Clear
10:35 PM 54.9 °F 45.1 °F 70% 30.20 in 10.0 mi NE 8.1 mph 17.3 mph N/A   Clear
10:55 PM 54.7 °F 45.5 °F 71% 30.19 in 10.0 mi NE 8.1 mph - N/A   Scattered Clouds
11:15 PM 54.9 °F 45.7 °F 71% 30.19 in 10.0 mi NE 10.4 mph - N/A   Mostly Cloudy
11:35 PM 54.9 °F 45.9 °F 72% 30.18 in 10.0 mi NE 11.5 mph 18.4 mph N/A   Overcast
11:55 PM 54.7 °F 46.4 °F 74% 30.17 in 10.0 mi NE 6.9 mph - N/A   Overcast